Time,TemperatureF,DewpointF,PressureIn,WindDirection,WindDirectionDegrees,WindSpeedMPH,WindSpeedGustMPH,Humidity,HourlyPrecipIn,Conditions,Clouds,dailyrainin,SoftwareType,DateUTC
2013-05-20 00:01:00,59.4,59.4,30.21,SSE,159,0.0,25.8,100,3.97,,,0.00,VWS V13.01,2013-05-20 04:01:00,
2013-05-20 00:06:00,59.4,59.4,30.20,SSE,159,0.0,25.8,100,3.97,,,0.00,VWS V13.01,2013-05-20 04:06:00,
2013-05-20 00:11:00,59.4,59.4,30.20,SSE,159,0.0,25.8,100,3.97,,,0.00,VWS V13.01,2013-05-20 04:11:00,
2013-05-20 00:16:00,59.6,59.6,30.21,SSE,159,0.0,25.8,100,3.97,,,0.00,VWS V13.01,2013-05-20 04:16:00,
2013-05-20 00:21:00,59.7,59.7,30.21,SSE,159,0.0,25.8,100,3.97,,,0.00,VWS V13.01,2013-05-20 04:21:00,
2013-05-20 00:26:00,59.6,59.6,30.21,SSE,159,0.0,25.8,100,3.97,,,0.00,VWS V13.01,2013-05-20 04:26:00,
2013-05-20 00:31:00,59.7,59.7,30.21,SSE,159,0.0,25.8,100,3.97,,,0.00,VWS V13.01,2013-05-20 04:31:00,
2013-05-20 00:36:00,59.7,59.7,30.20,SSE,159,0.0,25.8,100,3.97,,,0.00,VWS V13.01,2013-05-20 04:36:00,
2013-05-20 00:41:00,59.8,59.8,30.20,SSE,159,0.0,25.8,100,3.97,,,0.00,VWS V13.01,2013-05-20 04:41:00,
2013-05-20 00:46:00,59.9,59.9,30.20,SSE,159,0.0,25.8,100,3.97,,,0.00,VWS V13.01,2013-05-20 04:46:00,
2013-05-20 00:51:00,59.8,59.8,30.20,SSE,159,0.0,25.8,100,3.97,,,0.00,VWS V13.01,2013-05-20 04:51:00,
2013-05-20 00:56:00,59.7,59.7,30.19,SSE,159,0.0,25.8,100,3.97,,,0.00,VWS V13.01,2013-05-20 04:56:00,
2013-05-20 01:01:00,59.8,59.8,30.19,SSE,159,0.0,25.8,100,3.97,,,0.00,VWS V13.01,2013-05-20 05:01:00,
2013-05-20 01:06:00,59.7,59.7,30.19,SSE,159,0.0,25.8,100,3.97,,,0.00,VWS V13.01,2013-05-20 05:06:00,
2013-05-20 01:11:00,59.7,59.7,30.18,SSE,159,0.0,25.8,100,3.97,,,0.00,VWS V13.01,2013-05-20 05:11:00,
2013-05-20 01:16:00,59.8,59.8,30.18,SSE,159,0.0,25.8,100,3.98,,,0.01,VWS V13.01,2013-05-20 05:16:00,
2013-05-20 01:20:00,59.8,59.8,30.18,SSE,159,0.0,25.8,100,3.98,,,0.01,VWS V13.01,2013-05-20 05:20:00,
2013-05-20 01:25:00,59.6,59.6,30.18,SSE,159,0.0,25.8,100,3.98,,,0.01,VWS V13.01,2013-05-20 05:25:00,
2013-05-20 01:30:00,59.6,59.6,30.18,SSE,159,0.0,25.8,100,3.98,,,0.01,VWS V13.01,2013-05-20 05:30:00,
2013-05-20 01:35:00,59.5,59.5,30.17,SSE,159,0.0,25.8,100,3.98,,,0.01,VWS V13.01,2013-05-20 05:35:00,
2013-05-20 01:40:00,59.6,59.6,30.17,SSE,159,0.0,25.8,100,3.98,,,0.01,VWS V13.01,2013-05-20 05:40:00,
2013-05-20 01:45:00,59.6,59.6,30.17,SSE,159,0.0,25.8,100,3.98,,,0.01,VWS V13.01,2013-05-20 05:45:00,
2013-05-20 01:50:00,59.5,59.5,30.17,SSE,159,0.0,25.8,100,3.98,,,0.01,VWS V13.01,2013-05-20 05:50:00,
2013-05-20 01:55:00,59.6,59.6,30.17,SSE,159,0.0,25.8,100,3.98,,,0.01,VWS V13.01,2013-05-20 05:55:00,
2013-05-20 02:00:00,59.6,59.6,30.16,SSE,159,0.0,25.8,100,3.98,,,0.01,VWS V13.01,2013-05-20 06:00:00,
2013-05-20 02:05:00,59.8,59.8,30.16,SSE,159,0.0,25.8,100,3.98,,,0.01,VWS V13.01,2013-05-20 06:05:00,
2013-05-20 02:10:00,59.7,59.7,30.16,SSE,159,0.0,25.8,100,3.98,,,0.01,VWS V13.01,2013-05-20 06:10:00,
2013-05-20 02:15:00,59.6,59.6,30.16,SSE,159,0.0,25.8,100,3.98,,,0.01,VWS V13.01,2013-05-20 06:15:00,
2013-05-20 02:20:00,59.8,59.8,30.15,SSE,159,0.0,25.8,100,3.98,,,0.01,VWS V13.01,2013-05-20 06:20:00,
2013-05-20 02:25:00,59.7,59.7,30.15,SSE,159,0.0,25.8,100,3.98,,,0.01,VWS V13.01,2013-05-20 06:25:00,
2013-05-20 02:30:00,59.7,59.7,30.15,SSE,159,0.0,25.8,100,3.98,,,0.01,VWS V13.01,2013-05-20 06:30:00,
2013-05-20 02:35:00,59.7,59.7,30.15,SSE,159,0.0,25.8,100,3.98,,,0.01,VWS V13.01,2013-05-20 06:35:00,
2013-05-20 02:40:00,59.8,59.8,30.15,SSE,159,0.0,25.8,100,3.98,,,0.01,VWS V13.01,2013-05-20 06:40:00,
2013-05-20 02:45:00,59.8,59.8,30.14,SSE,159,0.0,25.8,100,3.98,,,0.01,VWS V13.01,2013-05-20 06:45:00,
2013-05-20 02:50:00,59.7,59.7,30.14,SSE,159,0.0,25.8,100,3.98,,,0.01,VWS V13.01,2013-05-20 06:50:00,
2013-05-20 02:55:00,59.7,59.7,30.14,SSE,159,0.0,25.8,100,3.98,,,0.01,VWS V13.01,2013-05-20 06:55:00,
2013-05-20 03:00:00,59.9,59.9,30.14,SSE,159,0.0,25.8,100,3.98,,,0.01,VWS V13.01,2013-05-20 07:00:00,
2013-05-20 03:05:00,59.7,59.7,30.13,SSE,159,0.0,25.8,100,3.98,,,0.01,VWS V13.01,2013-05-20 07:05:00,
2013-05-20 03:10:00,59.9,59.9,30.13,SSE,159,0.0,25.8,100,3.98,,,0.01,VWS V13.01,2013-05-20 07:10:00,
2013-05-20 03:15:00,59.8,59.8,30.13,SSE,159,0.0,25.8,100,3.98,,,0.01,VWS V13.01,2013-05-20 07:15:00,
2013-05-20 03:20:00,59.8,59.8,30.13,SSE,159,0.0,25.8,100,3.98,,,0.01,VWS V13.01,2013-05-20 07:20:00,
2013-05-20 03:25:00,59.5,59.5,30.13,SSE,159,0.0,25.8,100,3.98,,,0.01,VWS V13.01,2013-05-20 07:25:00,
2013-05-20 03:30:00,59.9,59.9,30.13,SSE,159,0.0,25.8,100,3.98,,,0.01,VWS V13.01,2013-05-20 07:30:00,
2013-05-20 03:35:00,59.8,59.8,30.13,SSE,159,0.0,25.8,100,3.98,,,0.01,VWS V13.01,2013-05-20 07:35:00,
2013-05-20 03:40:00,59.7,59.7,30.13,SSE,159,0.0,25.8,100,3.98,,,0.01,VWS V13.01,2013-05-20 07:40:00,
2013-05-20 03:45:00,59.9,59.9,30.13,SSE,159,0.0,25.8,100,3.98,,,0.01,VWS V13.01,2013-05-20 07:45:00,
2013-05-20 03:50:00,59.7,59.7,30.13,SSE,159,0.0,25.8,100,3.98,,,0.01,VWS V13.01,2013-05-20 07:50:00,
2013-05-20 03:55:00,59.9,59.9,30.13,SSE,159,0.0,25.8,100,3.98,,,0.01,VWS V13.01,2013-05-20 07:55:00,
2013-05-20 04:00:00,59.8,59.8,30.13,SSE,159,0.0,25.8,100,3.98,,,0.01,VWS V13.01,2013-05-20 08:00:00,
2013-05-20 04:05:00,59.6,59.6,30.13,SSE,159,0.0,25.8,100,3.98,,,0.01,VWS V13.01,2013-05-20 08:05:00,
2013-05-20 04:10:00,59.7,59.7,30.13,SSE,159,0.0,25.8,100,3.98,,,0.01,VWS V13.01,2013-05-20 08:10:00,
2013-05-20 04:15:00,59.7,59.7,30.13,SSE,159,0.0,25.8,100,3.98,,,0.01,VWS V13.01,2013-05-20 08:15:00,
2013-05-20 04:20:00,59.7,59.7,30.13,SSE,159,0.0,25.8,100,3.98,,,0.01,VWS V13.01,2013-05-20 08:20:00,
2013-05-20 04:25:00,59.7,59.7,30.13,SSE,159,0.0,25.8,100,3.98,,,0.01,VWS V13.01,2013-05-20 08:25:00,
2013-05-20 04:30:00,59.9,59.9,30.14,SSE,159,0.0,25.8,100,3.98,,,0.01,VWS V13.01,2013-05-20 08:30:00,
2013-05-20 04:35:00,59.8,59.8,30.14,SSE,159,0.0,25.8,100,3.98,,,0.01,VWS V13.01,2013-05-20 08:35:00,
2013-05-20 04:40:00,59.9,59.9,30.13,SSE,159,0.0,25.8,100,3.98,,,0.01,VWS V13.01,2013-05-20 08:40:00,
2013-05-20 04:45:00,59.9,59.9,30.13,SSE,159,0.0,25.8,100,3.98,,,0.01,VWS V13.01,2013-05-20 08:45:00,
2013-05-20 04:50:00,60.0,60.0,30.13,SSE,159,0.0,25.8,100,3.98,,,0.01,VWS V13.01,2013-05-20 08:50:00,
2013-05-20 04:55:00,59.8,59.8,30.13,SSE,159,0.0,25.8,100,3.98,,,0.01,VWS V13.01,2013-05-20 08:55:00,
2013-05-20 05:00:00,59.9,59.9,30.13,SSE,159,0.0,25.8,100,3.98,,,0.01,VWS V13.01,2013-05-20 09:00:00,
2013-05-20 05:05:00,60.0,60.0,30.13,SSE,159,0.0,25.8,100,3.98,,,0.01,VWS V13.01,2013-05-20 09:05:00,
2013-05-20 05:10:00,59.8,59.8,30.13,SSE,159,0.0,25.8,100,3.98,,,0.01,VWS V13.01,2013-05-20 09:10:00,
2013-05-20 05:15:00,59.6,59.6,30.13,SSE,159,0.0,25.8,100,3.98,,,0.01,VWS V13.01,2013-05-20 09:15:00,
2013-05-20 05:20:00,59.5,59.5,30.13,SSE,159,0.0,25.8,100,3.98,,,0.01,VWS V13.01,2013-05-20 09:20:00,
2013-05-20 05:25:00,59.4,59.4,30.13,SSE,159,0.0,25.8,100,3.98,,,0.01,VWS V13.01,2013-05-20 09:25:00,
2013-05-20 05:30:00,59.7,59.7,30.13,SSE,159,0.0,25.8,100,3.98,,,0.01,VWS V13.01,2013-05-20 09:30:00,
2013-05-20 05:35:00,59.7,59.7,30.13,SSE,159,0.0,25.8,100,3.98,,,0.01,VWS V13.01,2013-05-20 09:35:00,
2013-05-20 05:40:00,59.7,59.7,30.13,SSE,159,0.0,25.8,100,3.99,,,0.02,VWS V13.01,2013-05-20 09:40:00,
2013-05-20 05:45:00,59.6,59.6,30.13,SSE,159,0.0,25.8,100,3.99,,,0.02,VWS V13.01,2013-05-20 09:45:00,
2013-05-20 05:50:00,59.6,59.6,30.13,SSE,159,0.0,25.8,100,3.99,,,0.02,VWS V13.01,2013-05-20 09:50:00,
2013-05-20 05:55:00,59.4,59.4,30.13,SSE,159,0.0,25.8,100,3.99,,,0.02,VWS V13.01,2013-05-20 09:55:00,
2013-05-20 06:00:00,59.4,59.4,30.13,SSE,159,0.0,25.8,100,3.99,,,0.02,VWS V13.01,2013-05-20 10:00:00,
2013-05-20 06:05:00,59.3,59.3,30.13,SSE,159,0.0,25.8,100,3.99,,,0.02,VWS V13.01,2013-05-20 10:05:00,
2013-05-20 06:10:00,59.3,59.3,30.13,SSE,159,0.0,25.8,100,3.99,,,0.02,VWS V13.01,2013-05-20 10:10:00,
2013-05-20 06:15:00,59.2,59.2,30.13,SSE,159,0.0,25.8,100,3.99,,,0.02,VWS V13.01,2013-05-20 10:15:00,
2013-05-20 06:20:00,59.4,59.4,30.13,SSE,159,0.0,25.8,100,3.99,,,0.02,VWS V13.01,2013-05-20 10:20:00,
2013-05-20 06:25:00,59.2,59.2,30.13,SSE,159,0.0,25.8,100,3.99,,,0.02,VWS V13.01,2013-05-20 10:25:00,
2013-05-20 06:30:00,59.2,59.2,30.12,SSE,159,0.0,25.8,100,3.99,,,0.02,VWS V13.01,2013-05-20 10:30:00,
2013-05-20 06:35:00,59.2,59.2,30.12,SSE,159,0.0,25.8,100,3.99,,,0.02,VWS V13.01,2013-05-20 10:35:00,
2013-05-20 06:40:00,59.3,59.3,30.12,SSE,159,0.0,25.8,100,3.99,,,0.02,VWS V13.01,2013-05-20 10:40:00,
2013-05-20 06:45:00,59.5,59.5,30.13,SSE,159,0.0,25.8,100,3.99,,,0.02,VWS V13.01,2013-05-20 10:45:00,
2013-05-20 06:50:00,59.6,59.6,30.13,SSE,159,0.0,25.8,100,3.99,,,0.02,VWS V13.01,2013-05-20 10:50:00,
2013-05-20 06:55:00,59.6,59.6,30.13,SSE,159,0.0,25.8,100,3.99,,,0.02,VWS V13.01,2013-05-20 10:55:00,
2013-05-20 07:00:00,59.9,59.9,30.13,SSE,159,0.0,25.8,100,3.99,,,0.02,VWS V13.01,2013-05-20 11:00:00,
2013-05-20 07:05:00,60.3,60.3,30.13,SSE,159,0.0,25.8,100,3.99,,,0.02,VWS V13.01,2013-05-20 11:05:00,
2013-05-20 07:10:00,60.4,60.4,30.13,SSE,159,0.0,25.8,100,3.99,,,0.02,VWS V13.01,2013-05-20 11:10:00,
2013-05-20 07:15:00,60.4,60.4,30.13,SSE,159,0.0,25.8,100,3.99,,,0.02,VWS V13.01,2013-05-20 11:15:00,
2013-05-20 07:20:00,60.4,60.4,30.13,SSE,159,0.0,25.8,100,3.99,,,0.02,VWS V13.01,2013-05-20 11:20:00,
2013-05-20 07:25:00,60.5,60.5,30.13,SSE,159,0.0,25.8,100,3.99,,,0.02,VWS V13.01,2013-05-20 11:25:00,
2013-05-20 07:30:00,60.7,60.7,30.13,SSE,159,0.0,25.8,100,3.99,,,0.02,VWS V13.01,2013-05-20 11:30:00,
2013-05-20 07:34:00,60.7,60.7,30.13,SSE,159,0.0,25.8,100,3.99,,,0.02,VWS V13.01,2013-05-20 11:34:00,
2013-05-20 07:39:00,60.8,60.8,30.13,SSE,159,0.0,25.8,100,3.99,,,0.02,VWS V13.01,2013-05-20 11:39:00,
2013-05-20 07:44:00,60.8,60.8,30.13,SSE,159,0.0,25.8,100,3.99,,,0.02,VWS V13.01,2013-05-20 11:44:00,
2013-05-20 07:49:00,60.9,60.9,30.14,SSE,159,0.0,25.8,100,3.99,,,0.02,VWS V13.01,2013-05-20 11:49:00,
2013-05-20 07:54:00,61.0,61.0,30.14,SSE,159,0.0,25.8,100,3.99,,,0.02,VWS V13.01,2013-05-20 11:54:00,
2013-05-20 07:59:00,61.5,61.5,30.14,SSE,159,0.0,25.8,100,3.99,,,0.02,VWS V13.01,2013-05-20 11:59:00,
2013-05-20 08:04:00,61.6,61.6,30.15,SSE,159,0.0,25.8,100,3.99,,,0.02,VWS V13.01,2013-05-20 12:04:00,
2013-05-20 08:09:00,61.7,61.7,30.15,SSE,159,0.0,25.8,100,3.99,,,0.02,VWS V13.01,2013-05-20 12:09:00,
2013-05-20 08:14:00,61.8,61.8,30.15,SSE,159,0.0,25.8,100,3.99,,,0.02,VWS V13.01,2013-05-20 12:14:00,
2013-05-20 08:19:00,61.9,61.9,30.15,SSE,159,0.0,25.8,100,3.99,,,0.02,VWS V13.01,2013-05-20 12:19:00,
2013-05-20 08:24:00,62.0,62.0,30.15,SSE,159,0.0,25.8,100,3.99,,,0.02,VWS V13.01,2013-05-20 12:24:00,
2013-05-20 08:29:00,62.1,62.1,30.15,SSE,159,0.0,25.8,100,3.99,,,0.02,VWS V13.01,2013-05-20 12:29:00,
2013-05-20 08:34:00,62.3,62.3,30.15,SSE,159,0.0,25.8,100,3.99,,,0.02,VWS V13.01,2013-05-20 12:34:00,
2013-05-20 08:39:00,62.4,62.4,30.15,SSE,159,0.0,25.8,100,3.99,,,0.02,VWS V13.01,2013-05-20 12:39:00,
2013-05-20 08:44:00,63.3,63.3,30.15,SSE,159,0.0,25.8,100,3.99,,,0.02,VWS V13.01,2013-05-20 12:44:00,
2013-05-20 08:49:00,63.5,63.5,30.15,SSE,159,0.0,25.8,100,3.99,,,0.02,VWS V13.01,2013-05-20 12:49:00,
2013-05-20 08:54:00,63.7,63.7,30.15,SSE,159,0.0,25.8,100,3.99,,,0.02,VWS V13.01,2013-05-20 12:54:00,
2013-05-20 08:59:00,64.1,64.1,30.15,SSE,159,0.0,25.8,100,3.99,,,0.02,VWS V13.01,2013-05-20 12:59:00,
2013-05-20 09:04:00,64.3,64.3,30.15,SSE,159,0.0,25.8,100,3.99,,,0.02,VWS V13.01,2013-05-20 13:04:00,
2013-05-20 09:09:00,64.7,64.7,30.15,SSE,159,0.0,25.8,100,3.99,,,0.02,VWS V13.01,2013-05-20 13:09:00,
2013-05-20 09:14:00,64.9,64.9,30.15,NW,321,1.1,25.8,100,3.99,,,0.02,VWS V13.01,2013-05-20 13:14:00,
2013-05-20 09:19:00,64.9,64.9,30.15,NW,321,0.0,25.8,100,3.99,,,0.02,VWS V13.01,2013-05-20 13:19:00,
2013-05-20 09:24:00,65.4,65.4,30.15,NW,309,0.0,25.8,100,3.99,,,0.02,VWS V13.01,2013-05-20 13:24:00,
2013-05-20 09:29:00,65.3,65.3,30.15,NW,309,0.0,25.8,100,3.99,,,0.02,VWS V13.01,2013-05-20 13:29:00,
2013-05-20 09:34:00,65.2,65.2,30.15,West,281,0.0,25.8,100,3.99,,,0.02,VWS V13.01,2013-05-20 13:34:00,
2013-05-20 09:39:00,65.2,65.2,30.15,WNW,302,0.0,25.8,100,3.99,,,0.02,VWS V13.01,2013-05-20 13:39:00,
2013-05-20 09:44:00,65.4,65.4,30.15,WNW,302,0.0,25.8,100,3.99,,,0.02,VWS V13.01,2013-05-20 13:44:00,
2013-05-20 09:49:00,65.4,65.4,30.15,WNW,302,0.0,25.8,100,3.99,,,0.02,VWS V13.01,2013-05-20 13:49:00,
2013-05-20 09:54:00,65.6,65.6,30.15,WNW,302,0.0,25.8,100,3.99,,,0.02,VWS V13.01,2013-05-20 13:54:00,
2013-05-20 09:59:00,65.6,65.6,30.15,WNW,302,0.0,25.8,100,3.99,,,0.02,VWS V13.01,2013-05-20 13:59:00,
2013-05-20 10:04:00,65.8,65.8,30.15,WNW,302,0.0,25.8,100,3.99,,,0.02,VWS V13.01,2013-05-20 14:04:00,
2013-05-20 10:09:00,66.1,66.1,30.15,NNW,328,0.0,25.8,100,3.99,,,0.02,VWS V13.01,2013-05-20 14:09:00,
2013-05-20 10:14:00,65.9,65.9,30.15,WSW,246,0.0,25.8,100,3.99,,,0.02,VWS V13.01,2013-05-20 14:14:00,
2013-05-20 10:19:00,66.0,66.0,30.14,WNW,285,0.0,25.8,100,3.99,,,0.02,VWS V13.01,2013-05-20 14:19:00,
2013-05-20 10:24:00,66.5,66.5,30.14,NW,326,0.0,25.8,100,3.99,,,0.02,VWS V13.01,2013-05-20 14:24:00,
2013-05-20 10:29:00,66.9,66.9,30.14,NW,326,0.0,25.8,100,3.99,,,0.02,VWS V13.01,2013-05-20 14:29:00,
2013-05-20 10:34:00,66.9,66.9,30.14,West,263,1.1,25.8,100,3.99,,,0.02,VWS V13.01,2013-05-20 14:34:00,
2013-05-20 10:39:00,67.1,67.1,30.14,WNW,287,0.0,25.8,100,3.99,,,0.02,VWS V13.01,2013-05-20 14:39:00,
2013-05-20 10:44:00,67.2,67.2,30.14,WNW,287,0.0,25.8,100,3.99,,,0.02,VWS V13.01,2013-05-20 14:44:00,
2013-05-20 10:49:00,67.6,67.6,30.14,West,260,0.0,25.8,100,3.99,,,0.02,VWS V13.01,2013-05-20 14:49:00,
2013-05-20 10:54:00,67.9,67.9,30.14,WSW,255,0.0,25.8,100,3.99,,,0.02,VWS V13.01,2013-05-20 14:54:00,
2013-05-20 10:59:00,68.1,68.1,30.14,NNW,342,0.0,25.8,100,3.99,,,0.02,VWS V13.01,2013-05-20 14:59:00,
2013-05-20 11:04:00,68.4,68.4,30.14,NNW,345,0.0,25.8,100,3.99,,,0.02,VWS V13.01,2013-05-20 15:04:00,
2013-05-20 11:09:00,68.4,68.4,30.14,NW,309,0.0,25.8,100,3.99,,,0.02,VWS V13.01,2013-05-20 15:09:00,
2013-05-20 11:14:00,69.3,69.3,30.14,West,277,1.9,25.8,100,3.99,,,0.02,VWS V13.01,2013-05-20 15:14:00,
2013-05-20 11:19:00,69.4,69.4,30.14,NNW,347,0.0,25.8,100,3.99,,,0.02,VWS V13.01,2013-05-20 15:19:00,
2013-05-20 11:24:00,70.3,70.3,30.13,NW,325,2.6,25.8,100,3.99,,,0.02,VWS V13.01,2013-05-20 15:24:00,
2013-05-20 11:29:00,70.8,70.8,30.13,North,10,0.0,25.8,100,3.99,,,0.02,VWS V13.01,2013-05-20 15:29:00,
2013-05-20 11:34:00,70.7,70.7,30.13,WNW,284,1.6,25.8,100,3.99,,,0.02,VWS V13.01,2013-05-20 15:34:00,
2013-05-20 11:39:00,70.2,70.2,30.13,SSE,149,5.0,25.8,100,3.99,,,0.02,VWS V13.01,2013-05-20 15:39:00,
2013-05-20 11:44:00,69.2,69.2,30.13,SE,132,0.2,25.8,100,3.99,,,0.02,VWS V13.01,2013-05-20 15:44:00,
2013-05-20 11:49:00,68.5,68.5,30.13,ESE,117,0.0,25.8,100,3.99,,,0.02,VWS V13.01,2013-05-20 15:49:00,
2013-05-20 11:54:00,67.9,67.9,30.12,South,177,3.0,25.8,100,3.99,,,0.02,VWS V13.01,2013-05-20 15:54:00,
2013-05-20 11:59:00,67.2,67.2,30.12,SSE,159,0.0,25.8,100,3.99,,,0.02,VWS V13.01,2013-05-20 15:59:00,
2013-05-20 12:04:00,67.1,67.1,30.12,SSE,159,0.0,25.8,100,3.99,,,0.02,VWS V13.01,2013-05-20 16:04:00,
2013-05-20 12:09:00,67.2,67.2,30.12,SSW,207,0.0,25.8,100,3.99,,,0.02,VWS V13.01,2013-05-20 16:09:00,
2013-05-20 12:14:00,67.3,67.3,30.12,SSE,163,2.2,25.8,100,3.99,,,0.02,VWS V13.01,2013-05-20 16:14:00,
2013-05-20 12:19:00,67.4,67.4,30.11,East,86,0.0,25.8,100,3.99,,,0.02,VWS V13.01,2013-05-20 16:19:00,
2013-05-20 12:24:00,67.8,67.8,30.12,East,86,0.0,25.8,100,3.99,,,0.02,VWS V13.01,2013-05-20 16:24:00,
2013-05-20 12:29:00,68.4,68.4,30.11,NW,326,0.0,25.8,100,3.99,,,0.02,VWS V13.01,2013-05-20 16:29:00,
2013-05-20 12:34:00,69.2,69.2,30.11,WNW,291,7.2,25.8,100,3.99,,,0.02,VWS V13.01,2013-05-20 16:34:00,
2013-05-20 12:39:00,70.3,70.3,30.11,West,260,2.0,25.8,100,3.99,,,0.02,VWS V13.01,2013-05-20 16:39:00,
2013-05-20 12:44:00,70.6,70.6,30.10,WNW,302,0.8,25.8,100,3.99,,,0.02,VWS V13.01,2013-05-20 16:44:00,
2013-05-20 12:49:00,71.3,71.3,30.10,WNW,294,3.8,25.8,100,3.99,,,0.02,VWS V13.01,2013-05-20 16:49:00,
2013-05-20 12:54:00,72.1,71.9,30.10,NW,305,5.5,25.8,99,3.99,,,0.02,VWS V13.01,2013-05-20 16:54:00,
2013-05-20 12:59:00,71.8,71.5,30.10,WNW,288,6.0,25.8,99,3.99,,,0.02,VWS V13.01,2013-05-20 16:59:00,
2013-05-20 13:04:00,72.3,71.9,30.10,WNW,298,4.0,25.8,99,3.99,,,0.02,VWS V13.01,2013-05-20 17:04:00,
2013-05-20 13:09:00,72.5,72.0,30.10,WNW,284,5.3,25.8,98,3.99,,,0.02,VWS V13.01,2013-05-20 17:09:00,
2013-05-20 13:14:00,72.6,72.1,30.10,WNW,290,7.9,25.8,98,3.99,,,0.02,VWS V13.01,2013-05-20 17:14:00,
2013-05-20 13:19:00,73.0,72.4,30.09,West,269,4.5,25.8,98,3.99,,,0.02,VWS V13.01,2013-05-20 17:19:00,
2013-05-20 13:24:00,73.2,72.5,30.09,West,281,0.0,25.8,98,3.99,,,0.02,VWS V13.01,2013-05-20 17:24:00,
2013-05-20 13:29:00,73.3,72.5,30.09,South,181,2.6,25.8,97,3.99,,,0.02,VWS V13.01,2013-05-20 17:29:00,
2013-05-20 13:34:00,72.9,72.1,30.09,SSE,162,1.9,25.8,97,3.99,,,0.02,VWS V13.01,2013-05-20 17:34:00,
2013-05-20 13:39:00,73.1,72.4,30.08,WSW,246,0.0,25.8,98,3.99,,,0.02,VWS V13.01,2013-05-20 17:39:00,
2013-05-20 13:44:00,73.2,72.3,30.08,SW,225,5.3,25.8,97,3.99,,,0.02,VWS V13.01,2013-05-20 17:44:00,
2013-05-20 13:49:00,72.8,71.9,30.08,WSW,256,0.0,25.8,97,3.99,,,0.02,VWS V13.01,2013-05-20 17:49:00,
2013-05-20 13:54:00,72.8,71.9,30.08,South,188,0.0,25.8,97,3.99,,,0.02,VWS V13.01,2013-05-20 17:54:00,
2013-05-20 13:59:00,72.9,72.0,30.08,NW,308,0.6,25.8,97,3.99,,,0.02,VWS V13.01,2013-05-20 17:59:00,
2013-05-20 14:04:00,72.7,71.8,30.08,South,179,0.0,25.8,97,3.99,,,0.02,VWS V13.01,2013-05-20 18:04:00,
2013-05-20 14:09:00,72.8,71.9,30.08,SW,229,3.4,25.8,97,3.99,,,0.02,VWS V13.01,2013-05-20 18:09:00,
2013-05-20 14:13:00,73.1,72.2,30.08,SSW,205,2.2,25.8,97,3.99,,,0.02,VWS V13.01,2013-05-20 18:13:00,
2013-05-20 14:18:00,73.3,72.5,30.08,WNW,283,1.7,25.8,97,3.99,,,0.02,VWS V13.01,2013-05-20 18:18:00,
2013-05-20 14:23:00,73.6,72.7,30.07,WSW,242,0.0,25.8,97,3.99,,,0.02,VWS V13.01,2013-05-20 18:23:00,
2013-05-20 14:28:00,74.2,73.1,30.07,South,181,1.6,25.8,96,3.99,,,0.02,VWS V13.01,2013-05-20 18:28:00,
2013-05-20 14:33:00,74.2,73.1,30.07,SW,224,2.7,25.8,96,3.99,,,0.02,VWS V13.01,2013-05-20 18:33:00,
2013-05-20 14:38:00,74.3,73.2,30.07,West,260,1.2,25.8,96,3.99,,,0.02,VWS V13.01,2013-05-20 18:38:00,
2013-05-20 14:43:00,74.6,73.4,30.07,SW,228,2.0,25.8,96,3.99,,,0.02,VWS V13.01,2013-05-20 18:43:00,
2013-05-20 14:48:00,74.6,73.4,30.07,SSE,163,2.1,25.8,96,3.99,,,0.02,VWS V13.01,2013-05-20 18:48:00,
2013-05-20 14:53:00,74.7,73.5,30.07,SSW,210,5.0,25.8,96,3.99,,,0.02,VWS V13.01,2013-05-20 18:53:00,
2013-05-20 14:58:00,74.7,73.5,30.06,West,259,2.7,25.8,96,3.99,,,0.02,VWS V13.01,2013-05-20 18:58:00,
2013-05-20 15:03:00,74.6,73.4,30.06,West,259,1.2,25.8,96,3.99,,,0.02,VWS V13.01,2013-05-20 19:03:00,
2013-05-20 15:08:00,74.5,73.4,30.06,WSW,249,2.3,25.8,96,3.99,,,0.02,VWS V13.01,2013-05-20 19:08:00,
2013-05-20 15:13:00,74.4,73.3,30.06,SW,218,6.2,25.8,96,3.99,,,0.02,VWS V13.01,2013-05-20 19:13:00,
2013-05-20 15:18:00,74.5,73.4,30.06,SW,225,0.0,25.8,96,3.99,,,0.02,VWS V13.01,2013-05-20 19:18:00,
2013-05-20 15:23:00,74.8,73.7,30.06,West,274,2.4,25.8,96,3.99,,,0.02,VWS V13.01,2013-05-20 19:23:00,
2013-05-20 15:28:00,75.2,74.0,30.06,SE,142,4.5,25.8,96,3.99,,,0.02,VWS V13.01,2013-05-20 19:28:00,
2013-05-20 15:33:00,75.3,74.1,30.06,NW,326,2.3,25.8,96,3.99,,,0.02,VWS V13.01,2013-05-20 19:33:00,
2013-05-20 15:38:00,75.8,74.6,30.06,West,262,0.0,25.8,96,3.99,,,0.02,VWS V13.01,2013-05-20 19:38:00,
2013-05-20 15:43:00,76.1,74.8,30.06,WNW,291,2.7,25.8,96,3.99,,,0.02,VWS V13.01,2013-05-20 19:43:00,
2013-05-20 15:48:00,76.2,74.7,30.06,SSE,167,0.0,25.8,95,3.99,,,0.02,VWS V13.01,2013-05-20 19:48:00,
2013-05-20 15:53:00,76.8,75.3,30.06,SW,224,0.0,25.8,95,3.99,,,0.02,VWS V13.01,2013-05-20 19:53:00,
2013-05-20 15:58:00,76.6,74.6,30.06,SSE,155,3.0,25.8,94,3.99,,,0.02,VWS V13.01,2013-05-20 19:58:00,
2013-05-20 16:03:00,76.2,74.3,30.05,South,180,5.0,25.8,94,3.99,,,0.02,VWS V13.01,2013-05-20 20:03:00,
2013-05-20 16:08:00,75.9,74.1,30.05,East,97,2.1,25.8,94,3.99,,,0.02,VWS V13.01,2013-05-20 20:08:00,
2013-05-20 16:13:00,75.4,73.9,30.05,SSW,204,0.0,25.8,95,3.99,,,0.02,VWS V13.01,2013-05-20 20:13:00,
2013-05-20 16:18:00,74.9,73.4,30.05,SSE,158,1.8,25.8,95,3.99,,,0.02,VWS V13.01,2013-05-20 20:18:00,
2013-05-20 16:23:00,74.5,73.1,30.05,WSW,242,5.1,25.8,95,3.99,,,0.02,VWS V13.01,2013-05-20 20:23:00,
2013-05-20 16:28:00,74.2,72.8,30.04,ESE,115,2.4,25.8,95,3.99,,,0.02,VWS V13.01,2013-05-20 20:28:00,
2013-05-20 16:33:00,73.6,72.3,30.04,SSE,160,0.9,25.8,96,3.99,,,0.02,VWS V13.01,2013-05-20 20:33:00,
2013-05-20 16:38:00,73.1,71.8,30.04,SSE,150,5.7,25.8,96,3.99,,,0.02,VWS V13.01,2013-05-20 20:38:00,
2013-05-20 16:43:00,73.0,71.7,30.03,SSW,195,1.1,25.8,96,3.99,,,0.02,VWS V13.01,2013-05-20 20:43:00,
2013-05-20 16:48:00,72.6,71.3,30.03,ESE,122,0.0,25.8,96,3.99,,,0.02,VWS V13.01,2013-05-20 20:48:00,
2013-05-20 16:53:00,72.4,71.2,30.03,SSW,212,3.4,25.8,96,3.99,,,0.02,VWS V13.01,2013-05-20 20:53:00,
2013-05-20 16:58:00,72.1,70.8,30.03,SE,127,2.4,25.8,96,3.99,,,0.02,VWS V13.01,2013-05-20 20:58:00,
2013-05-20 17:03:00,72.0,70.8,30.03,SSW,200,2.3,25.8,96,3.99,,,0.02,VWS V13.01,2013-05-20 21:03:00,
2013-05-20 17:08:00,71.8,70.6,30.02,SE,145,0.0,25.8,96,3.99,,,0.02,VWS V13.01,2013-05-20 21:08:00,
2013-05-20 17:13:00,72.0,70.8,30.02,ESE,117,2.6,25.8,96,3.99,,,0.02,VWS V13.01,2013-05-20 21:13:00,
2013-05-20 17:18:00,71.9,70.7,30.02,SSE,165,0.9,25.8,96,3.99,,,0.02,VWS V13.01,2013-05-20 21:18:00,
2013-05-20 17:23:00,71.8,70.6,30.02,East,94,1.4,25.8,96,3.99,,,0.02,VWS V13.01,2013-05-20 21:23:00,
2013-05-20 17:28:00,71.5,70.3,30.02,South,176,0.0,25.8,96,3.99,,,0.02,VWS V13.01,2013-05-20 21:28:00,
2013-05-20 17:33:00,71.8,70.7,30.03,ESE,103,0.0,25.8,96,3.99,,,0.02,VWS V13.01,2013-05-20 21:33:00,
2013-05-20 17:38:00,71.7,70.6,30.03,SSE,150,0.0,25.8,96,3.99,,,0.02,VWS V13.01,2013-05-20 21:38:00,
2013-05-20 17:43:00,71.5,70.4,30.03,South,187,0.7,25.8,96,3.99,,,0.02,VWS V13.01,2013-05-20 21:43:00,
2013-05-20 17:48:00,71.9,70.8,30.03,WSW,238,0.0,25.8,96,3.99,,,0.02,VWS V13.01,2013-05-20 21:48:00,
2013-05-20 17:53:00,71.8,70.6,30.03,SSW,210,1.2,25.8,96,3.99,,,0.02,VWS V13.01,2013-05-20 21:53:00,
2013-05-20 17:58:00,71.7,70.5,30.03,WSW,257,0.0,25.8,96,3.99,,,0.02,VWS V13.01,2013-05-20 21:58:00,
2013-05-20 18:03:00,71.7,70.5,30.03,South,180,1.1,25.8,96,3.99,,,0.02,VWS V13.01,2013-05-20 22:03:00,
2013-05-20 18:08:00,72.0,70.8,30.03,South,180,0.0,25.8,96,3.99,,,0.02,VWS V13.01,2013-05-20 22:08:00,
2013-05-20 18:13:00,71.8,70.7,30.03,South,180,0.0,25.8,96,3.99,,,0.02,VWS V13.01,2013-05-20 22:13:00,
2013-05-20 18:18:00,71.9,70.8,30.03,South,180,0.0,25.8,96,3.99,,,0.02,VWS V13.01,2013-05-20 22:18:00,
2013-05-20 18:23:00,72.1,71.0,30.02,SE,129,0.0,25.8,96,3.99,,,0.02,VWS V13.01,2013-05-20 22:23:00,
2013-05-20 18:28:00,72.2,71.2,30.02,WSW,238,0.0,25.8,96,3.99,,,0.02,VWS V13.01,2013-05-20 22:28:00,
2013-05-20 18:33:00,71.9,70.8,30.02,WSW,238,0.0,25.8,96,3.99,,,0.02,VWS V13.01,2013-05-20 22:33:00,
2013-05-20 18:38:00,72.5,71.5,30.02,WSW,238,0.0,25.8,97,3.99,,,0.02,VWS V13.01,2013-05-20 22:38:00,
2013-05-20 18:43:00,72.7,71.7,30.02,WSW,238,0.0,25.8,97,3.99,,,0.02,VWS V13.01,2013-05-20 22:43:00,
2013-05-20 18:48:00,72.7,71.6,30.02,WSW,238,0.0,25.8,96,3.99,,,0.02,VWS V13.01,2013-05-20 22:48:00,
2013-05-20 18:53:00,72.7,71.6,30.02,WSW,242,0.0,25.8,96,3.99,,,0.02,VWS V13.01,2013-05-20 22:53:00,
2013-05-20 18:58:00,72.6,71.4,30.02,South,181,0.0,25.8,96,3.99,,,0.02,VWS V13.01,2013-05-20 22:58:00,
2013-05-20 19:03:00,72.2,70.9,30.02,SSE,160,0.0,25.8,96,3.99,,,0.02,VWS V13.01,2013-05-20 23:03:00,
2013-05-20 19:08:00,72.1,70.9,30.02,SSE,152,0.0,25.8,96,3.99,,,0.02,VWS V13.01,2013-05-20 23:08:00,
2013-05-20 19:13:00,72.0,70.8,30.02,SSE,152,0.0,25.8,96,3.99,,,0.02,VWS V13.01,2013-05-20 23:13:00,
2013-05-20 19:18:00,71.7,70.5,30.02,SSE,152,0.0,25.8,96,3.99,,,0.02,VWS V13.01,2013-05-20 23:18:00,
2013-05-20 19:23:00,71.9,70.8,30.03,SSE,152,0.0,25.8,96,3.99,,,0.02,VWS V13.01,2013-05-20 23:23:00,
2013-05-20 19:28:00,71.7,70.6,30.03,SSE,152,0.0,25.8,96,3.99,,,0.02,VWS V13.01,2013-05-20 23:28:00,
2013-05-20 19:33:00,71.6,70.6,30.03,SSE,152,0.0,25.8,96,3.99,,,0.02,VWS V13.01,2013-05-20 23:33:00,
2013-05-20 19:38:00,71.5,70.5,30.03,SSE,152,0.0,25.8,97,3.99,,,0.02,VWS V13.01,2013-05-20 23:38:00,
2013-05-20 19:43:00,71.2,70.2,30.02,SSE,152,0.0,25.8,97,3.99,,,0.02,VWS V13.01,2013-05-20 23:43:00,
2013-05-20 19:48:00,71.1,70.2,30.02,SSE,152,0.0,25.8,97,3.99,,,0.02,VWS V13.01,2013-05-20 23:48:00,
2013-05-20 19:53:00,71.2,70.3,30.02,SSE,152,0.0,25.8,97,3.99,,,0.02,VWS V13.01,2013-05-20 23:53:00,
2013-05-20 19:58:00,70.8,70.0,30.02,SSE,152,0.0,25.8,97,3.99,,,0.02,VWS V13.01,2013-05-20 23:58:00,
2013-05-20 20:03:00,70.7,70.0,30.02,SSE,152,0.0,25.8,98,3.99,,,0.02,VWS V13.01,2013-05-21 00:03:00,
2013-05-20 20:08:00,70.3,69.6,30.02,SSE,152,0.0,25.8,98,3.99,,,0.02,VWS V13.01,2013-05-21 00:08:00,
2013-05-20 20:12:00,70.2,69.6,30.02,SSE,152,0.0,25.8,98,3.99,,,0.02,VWS V13.01,2013-05-21 00:12:00,
2013-05-20 20:17:00,69.9,69.3,30.02,SSE,152,0.0,25.8,98,3.99,,,0.02,VWS V13.01,2013-05-21 00:17:00,
2013-05-20 20:22:00,70.0,69.5,30.02,SSE,152,0.0,25.8,98,3.99,,,0.02,VWS V13.01,2013-05-21 00:22:00,
2013-05-20 20:27:00,69.7,69.2,30.02,SSE,152,0.0,25.8,98,3.99,,,0.02,VWS V13.01,2013-05-21 00:27:00,
2013-05-20 20:32:00,69.5,69.1,30.02,SSE,152,0.0,25.8,99,3.99,,,0.02,VWS V13.01,2013-05-21 00:32:00,
2013-05-20 20:38:00,69.4,69.1,30.02,SSE,152,0.0,25.8,99,3.99,,,0.02,VWS V13.01,2013-05-21 00:38:00,
2013-05-20 20:43:00,69.3,69.0,30.02,SSE,152,0.0,25.8,99,3.99,,,0.02,VWS V13.01,2013-05-21 00:43:00,
2013-05-20 20:48:00,69.2,68.9,30.02,SSE,152,0.0,25.8,99,3.99,,,0.02,VWS V13.01,2013-05-21 00:48:00,
2013-05-20 20:53:00,69.1,68.9,30.03,SSE,152,0.0,25.8,99,3.99,,,0.02,VWS V13.01,2013-05-21 00:53:00,
2013-05-20 20:58:00,68.7,68.5,30.03,SSE,152,0.0,25.8,99,3.99,,,0.02,VWS V13.01,2013-05-21 00:58:00,
2013-05-20 21:03:00,68.7,68.5,30.03,SSE,152,0.0,25.8,99,3.99,,,0.02,VWS V13.01,2013-05-21 01:03:00,
2013-05-20 21:08:00,68.5,68.4,30.02,SSE,152,0.0,25.8,100,3.99,,,0.02,VWS V13.01,2013-05-21 01:08:00,
2013-05-20 21:13:00,68.4,68.3,30.02,SSE,152,0.0,25.8,100,3.99,,,0.02,VWS V13.01,2013-05-21 01:13:00,
2013-05-20 21:18:00,68.6,68.6,30.02,SSE,152,0.0,25.8,100,3.99,,,0.02,VWS V13.01,2013-05-21 01:18:00,
2013-05-20 21:23:00,68.4,68.4,30.02,South,172,0.0,25.8,100,3.99,,,0.02,VWS V13.01,2013-05-21 01:23:00,
2013-05-20 21:28:00,68.5,68.5,30.02,WSW,257,0.0,25.8,100,3.99,,,0.02,VWS V13.01,2013-05-21 01:28:00,
2013-05-20 21:33:00,68.6,68.6,30.03,West,262,0.0,25.8,100,3.99,,,0.02,VWS V13.01,2013-05-21 01:33:00,
2013-05-20 21:38:00,68.5,68.5,30.04,West,262,0.0,25.8,100,3.99,,,0.02,VWS V13.01,2013-05-21 01:38:00,
2013-05-20 21:43:00,68.9,68.9,30.04,WSW,240,0.0,25.8,100,3.99,,,0.02,VWS V13.01,2013-05-21 01:43:00,
2013-05-20 21:48:00,68.5,68.5,30.04,WSW,245,0.0,25.8,100,3.99,,,0.02,VWS V13.01,2013-05-21 01:48:00,
2013-05-20 21:53:00,69.0,69.0,30.04,SW,215,0.0,25.8,100,3.99,,,0.02,VWS V13.01,2013-05-21 01:53:00,
2013-05-20 21:58:00,68.8,68.8,30.04,West,276,0.0,25.8,100,3.99,,,0.02,VWS V13.01,2013-05-21 01:58:00,
2013-05-20 22:03:00,68.6,68.6,30.03,South,169,0.0,25.8,100,3.99,,,0.02,VWS V13.01,2013-05-21 02:03:00,
2013-05-20 22:08:00,69.1,69.1,30.04,South,169,0.0,25.8,100,3.99,,,0.02,VWS V13.01,2013-05-21 02:08:00,
2013-05-20 22:13:00,68.7,68.7,30.04,South,169,0.0,25.8,100,3.99,,,0.02,VWS V13.01,2013-05-21 02:13:00,
2013-05-20 22:18:00,69.0,69.0,30.04,South,169,0.0,25.8,100,3.99,,,0.02,VWS V13.01,2013-05-21 02:18:00,
2013-05-20 22:23:00,69.0,69.0,30.04,South,169,0.0,25.8,100,3.99,,,0.02,VWS V13.01,2013-05-21 02:23:00,
2013-05-20 22:28:00,68.6,68.6,30.04,South,169,0.0,25.8,100,3.99,,,0.02,VWS V13.01,2013-05-21 02:28:00,
2013-05-20 22:33:00,68.4,68.4,30.04,South,169,0.0,25.8,100,3.99,,,0.02,VWS V13.01,2013-05-21 02:33:00,
2013-05-20 22:38:00,68.7,68.7,30.04,South,169,0.0,25.8,100,3.99,,,0.02,VWS V13.01,2013-05-21 02:38:00,
2013-05-20 22:43:00,68.7,68.7,30.04,South,169,0.0,25.8,100,3.99,,,0.02,VWS V13.01,2013-05-21 02:43:00,
2013-05-20 22:48:00,68.5,68.5,30.04,South,169,0.0,25.8,100,3.99,,,0.02,VWS V13.01,2013-05-21 02:48:00,
2013-05-20 22:53:00,68.3,68.3,30.04,South,169,0.0,25.8,100,3.99,,,0.02,VWS V13.01,2013-05-21 02:53:00,
2013-05-20 22:57:00,68.3,68.3,30.04,West,270,1.7,25.8,100,3.99,,,0.02,VWS V13.01,2013-05-21 02:57:00,
2013-05-20 23:02:00,68.4,68.4,30.03,West,260,0.0,25.8,100,3.99,,,0.02,VWS V13.01,2013-05-21 03:02:00,
2013-05-20 23:07:00,68.5,68.5,30.03,West,260,0.0,25.8,100,3.99,,,0.02,VWS V13.01,2013-05-21 03:07:00,
2013-05-20 23:12:00,68.5,68.5,30.03,West,260,0.0,25.8,100,3.99,,,0.02,VWS V13.01,2013-05-21 03:12:00,
2013-05-20 23:17:00,68.3,68.3,30.02,West,278,0.9,25.8,100,3.99,,,0.02,VWS V13.01,2013-05-21 03:17:00,
2013-05-20 23:22:00,68.3,68.3,30.02,WSW,240,0.0,25.8,100,3.99,,,0.02,VWS V13.01,2013-05-21 03:22:00,
2013-05-20 23:27:00,68.0,68.0,30.02,South,184,0.0,25.8,100,3.99,,,0.02,VWS V13.01,2013-05-21 03:27:00,
2013-05-20 23:32:00,68.0,68.0,30.02,South,174,0.3,25.8,100,3.99,,,0.02,VWS V13.01,2013-05-21 03:32:00,
2013-05-20 23:37:00,68.0,68.0,30.02,South,174,0.0,25.8,100,3.99,,,0.02,VWS V13.01,2013-05-21 03:37:00,
2013-05-20 23:42:00,68.2,68.2,30.01,WSW,248,0.0,25.8,100,3.99,,,0.02,VWS V13.01,2013-05-21 03:42:00,
2013-05-20 23:47:00,68.3,68.3,30.01,WNW,294,1.2,25.8,100,3.99,,,0.02,VWS V13.01,2013-05-21 03:47:00,
2013-05-20 23:52:00,68.4,68.4,30.02,WSW,250,0.0,25.8,100,3.99,,,0.02,VWS V13.01,2013-05-21 03:52:00,
2013-05-20 23:57:00,68.3,68.3,30.01,WSW,250,0.0,25.8,100,3.99,,,0.02,VWS V13.01,2013-05-21 03:57:00,